NINGXIA-1 4

Last updated on Sat Dec 14 2019 00:02:03 GMT+0000 (Coordinated Universal Time)

1 44782U 19076D 19347.41465045 -.00000130 00000-0 00000+0 0 9995 2 44782 45.0130 0.8150 0011464 29.1959 330.9518 14.01336466 4237
UTC large
Height (km)
Speed (km/s)
/
Latitude / Longitude
Inclination (degrees)
Orbital Period (minutes)
Azimuth
Elevation
Range (km)
Doppler Factor

Next 0 passes for location: London (51.5072 / 0.1276)

Sorry there are no passes over London.